MPEC 2004-J50 : 2004 JP1

The following Minor Planet Electronic Circular may be linked-to from your own Web pages, but must not otherwise be redistributed electronically.


Read MPEC 2004-J49 Read MPEC 2004-J51


M.P.E.C. 2004-J50                                Issued 2004 May 12, 17:35 UT

     The Minor Planet Electronic Circulars contain information on unusual
         minor planets and routine data on comets.  They are published
   on behalf of Commission 20 of the International Astronomical Union by the
          Minor Planet Center, Smithsonian Astrophysical Observatory,
                          Cambridge, MA 02138, U.S.A.

         Supported in part by the Steven and Michele Kirsch Foundation
             Prepared using the Tamkin Foundation Computer Network

                              MPC@CFA.HARVARD.EDU
          URL http://cfa-www.harvard.edu/iau/mpc.html  ISSN 1523-6714

                                   2004 JP1

Observations:
     K04J01P* C2004 05 11.28609 16 23 02.69 +32 54 46.9          17.6   EJ050704
     K04J01P  C2004 05 11.29474 16 22 59.38 +32 54 27.8          17.9   EJ050704
     K04J01P  C2004 05 11.30344 16 22 56.04 +32 54 08.1          18.0   EJ050704
     K04J01P  C2004 05 11.31222 16 22 52.65 +32 53 48.3          18.1   EJ050704
     K04J01P  C2004 05 11.32116 16 22 49.16 +32 53 27.5          18.0   EJ050704
     K04J01P  C2004 05 11.97027 16 19 03.53 +32 23 26.6                 EJ050246
     K04J01P  C2004 05 11.97101 16 19 03.24 +32 23 24.5                 EJ050246
     K04J01P  C2004 05 11.97167 16 19 02.94 +32 23 22.6                 EJ050246
     K04J01P  C2004 05 11.97258 16 19 02.52 +32 23 19.9                 EJ050246
     K04J01P  C2004 05 11.97329 16 19 02.19 +32 23 17.7                 EJ050246
     K04J01P  C2004 05 11.97392 16 19 01.91 +32 23 15.8                 EJ050246
     K04J01P 5C2004 05 12.22749 16 17 29.03 +32 10 07.6          17.0 R EJ050673
     K04J01P 5C2004 05 12.22865 16 17 28.49 +32 10 04.5                 EJ050673
     K04J01P 5C2004 05 12.23779 16 17 24.18 +32 09 37.6                 EJ050673
     K04J01P 5C2004 05 12.24172 16 17 22.29 +32 09 26.0                 EJ050673
     K04J01P 5C2004 05 12.24670 16 17 19.91 +32 09 11.7                 EJ050673
     K04J01P 5C2004 05 12.25029 16 17 18.19 +32 09 00.9                 EJ050673
     K04J01P  C2004 05 12.26228 16 17 10.06 +32 08 39.5          17.1 R EJ050H06
     K04J01P  C2004 05 12.26424 16 17 09.07 +32 08 33.3          17.1 R EJ050H06
     K04J01P  C2004 05 12.26618 16 17 08.10 +32 08 27.4          17.0 R EJ050H06
     K04J01P  C2004 05 12.29659 16 16 48.02 +32 06 42.5          17.1 R EJ050850
     K04J01P  C2004 05 12.30307 16 16 44.76 +32 06 19.8          17.3 R EJ050850
     K04J01P  C2004 05 12.31420 16 16 39.10 +32 05 40.0          17.0 R EJ050850
     K04J01P  C2004 05 12.32671 16 16 32.68 +32 04 54.9          17.3 R EJ050850
     K04J01P  C2004 05 12.34580 16 16 30.48 +32 03 55.3          17.3 R EJ050G70
     K04J01P  C2004 05 12.35975 16 16 23.25 +32 03 07.7          17.3 R EJ050G70
     K04J01P  C2004 05 12.36663 16 16 17.77 +32 02 50.1          17.1 R EJ050854
     K04J01P  C2004 05 12.36884 16 16 16.63 +32 02 41.8          17.1 R EJ050854
     K04J01P  C2004 05 12.37309 16 16 16.27 +32 02 20.6          17.0 R EJ050G70
     K04J01P  C2004 05 12.37339 16 16 14.23 +32 02 25.6          17.0 R EJ050854

Observer details:
246 Klet Observatory-KLENOT.  Observer M. Tichy.  1.06-m KLENOT Telescope
    + CCD.
673 Table Mountain Observatory, Wrightwood.  Observer J. Young.  0.6-m
    reflector + CCD.
704 Lincoln Laboratory ETS, New Mexico.  Observers M. Blythe, F. Shelly,
    M. Bezpalko, R. Huber, L. Manguso, D. Torres, R. Kracke, M. McCleary,
    H. Stange, A. Milner.  Measurers J. Stuart, R. Sayer, J. Evans, J. Kommers.
    1.0-m f/2.15 reflector + CCD.
850 Cordell-Lorenz Observatory, Sewanee.  Observers D. T. Durig,
    F. R. Hartline.  0.35 m f/1.88 Schmidt + CCD.
854 Sabino Canyon Observatory, Tucson.  Observer J. E. McGaha.  0.356-m f/10.0
    Schmidt-Cassegrain + CCD.
G70 Francisquito Observatory, Los Angeles.  Observer R. E. Jones.  0.30-m
    f/6.7 reflector + CCD.
H06 New Mexico Skies Observatory.  Observer R. Hutsebaut.  0.30-m reflector
    + CCD.

Orbital elements:
2004 JP1
Epoch 2004 July 14.0 TT = JDT 2453200.5                 MPC
M 355.97423              (2000.0)            P               Q
n   0.81386698     Peri.  253.76811     +0.59520194     +0.74564103
a   1.1361450      Node    56.66425     -0.52921344     +0.64427709
e   0.2206125      Incl.   21.01368     -0.60470471     +0.17007788
P   1.21           H   22.4           G   0.15           U   7
Residuals in seconds of arc
040511 704  0.1-  0.1-    040511 246  0.1-  0.0     040512 850  1.0-  0.3-
040511 704  0.1-  0.0     040512 673  0.0   0.1-    040512 850  0.4-  0.3-
040511 704  0.1+  0.2-    040512 673  0.1+  0.1+    040512 850  0.1-  0.5-
040511 704  0.2+  0.0     040512 673  0.1+  0.1-    040512 850  0.4-  0.4-
040511 704  0.0   0.1-    040512 673  0.1-  0.1-    040512 G70  0.2+  0.1+
040511 246  0.3-  0.0     040512 673  0.1-  0.3+    040512 G70  0.3+  0.6+
040511 246  0.2+  0.1+    040512 673  0.0   0.2+    040512 854  0.2+  0.0
040511 246  0.2+  0.1+    040512 H06  0.2+  0.2-    040512 854  0.4+  0.4-
040511 246  0.0   0.1+    040512 H06  0.0   0.3-    040512 G70  0.1+  0.4+
040511 246  0.2-  0.0     040512 H06  0.0   0.1-    040512 854  0.2+  0.1-

Ephemeris:
2004 JP1                 a,e,i = 1.14, 0.22, 21                  q = 0.8855
Date    TT    R. A. (2000) Decl.     Delta      r     Elong.  Phase     V
2004 05 05    16 39.78   +34 44.5    0.095    1.063   122.6    53.0    19.4
2004 05 10    16 28.64   +33 36.3    0.059    1.045   125.3    52.0    18.3
2004 05 15    15 43.23   +27 00.3    0.023    1.027   134.0    45.1    16.0

2004 05 16    15 14.08   +21 39.3    0.016    1.024   139.0    40.4    15.1
2004 05 17    14 16.19   +08 50.2    0.011    1.020   145.6    34.1    14.0
2004 05 18    12 08.32   -21 21.7    0.0078   1.017   130.6    49.1    13.7
2004 05 19    09 08.38   -42 51.2    0.011    1.013    97.1    82.3    15.5
2004 05 20    07 25.26   -44 57.6    0.017    1.010    81.6    97.5    17.0

2004 05 25    05 41.25   -40 56.2    0.052    0.993    65.6   111.7    20.2
2004 05 30    05 23.19   -39 20.7    0.088    0.976    62.4   113.0    21.4
2004 06 04    05 15.41   -38 16.8    0.123    0.961    61.0   112.5    22.1

Kyle E. Smalley              (C) Copyright 2004 MPC           M.P.E.C. 2004-J50

Read MPEC 2004-J49 Read MPEC 2004-J51


Our Web policy. Index to the CBAT/MPC/ICQ pages.

MPC